Location: Bartlow
(52.0833°N, 0.3167°E)
Time: 18:59:31
(UTC+00:00)

Cosmos 2237 - Pass Details

Date: 26 September 2023
Orbit: 844 x 857 km, 70.8° (Epoch: 08 December)

Event Time Altitude Azimuth Distance (km) Brightness Sun altitude
Rises 03:36:33 0° 325° (NW) 3,439 7.3 -20.7°
Reaches altitude 10° 03:39:07 10° 319° (NW) 2,500 6.5 -20.4°
Maximum altitude 03:44:30 43° 250° (WSW) 1,186 4.5 -19.6°
Drops below altitude 10° 03:49:52 10° 180° (S) 2,486 6.4 -18.9°
Sets 03:52:25 0° 174° (S) 3,417 7.2 -18.5°
